エルスト-ピサロ彗星

133P/(7968) Elst-Pizarro (2007)

English version
Home page
Updated on March 5, 2011

---------------------------------------------------------------------

・ プロフィール

・ 軌道要素

Perturbed ephemeris below is based on elements from CCO 14. 

 Epoch = 2454280.50000 TT   T = 2454280.85938 TT
 Peri. =  132.06733         a =     3.1583849 AU
 Node  =  160.18540 J2000.0 e =     0.1635761
 Incl. =    1.38614         q =     2.6417487 AU

・ 星図

・ 光度変化

        H = 15.5  G = 0.15

---------------------------------------------------------------------

軌道要素はMinor Planet & Comet Ephemeris Serviceで計算したものです。
星図は StellaNavigator Ver.2.0 for Windows (アストロアーツ 編著 / アスキー出版局刊) で作成したものです。
光度グラフはComet for Windowsで作成したものです。

---------------------------------------------------------------------

Copyright(C) Seiichi Yoshida (comet@aerith.net). All rights reserved.